FW2882 Weather Reports


time (UTC)temp
C
wind
direction
speed
KPH
gust
KPH
rain 1hr
cm
rain 24hr
cm
rain mn
cm
humidity
%
barometer
mb
20260503213624 17 139 4.8 4.8 0.00 0.00 0.30 49 1008.5
20260503213454 16 319 4.8 19.3 0.00 0.30 0.30 48 1008.4
20260503212956 16 219 11.3 14.5 0.00 0.30 0.30 49 1008.5
20260503212624 17 333 6.4 6.4 0.00 0.00 0.30 49 1008.8
20260503212453 16 213 1.6 24.1 0.00 0.30 0.30 49 1008.5
20260503211624 17 220 8.0 8.0 0.00 0.00 0.30 47 1008.8
20260503211456 17 170 11.3 29.0 0.00 0.30 0.30 46 1008.6
20260503211124 17 213 8.0 8.0 0.00 0.00 0.30 46 1008.8
20260503210956 17 280 6.4 19.3 0.00 0.30 0.30 45 1008.7
20260503210624 18 205 8.0 8.0 0.00 0.00 0.30 46 1008.8
20260503210454 18 239 12.9 24.1 0.00 0.30 0.30 46 1008.9
20260503210124 18 258 8.0 8.0 0.00 0.00 0.30 45 1008.8
20260503205958 18 253 22.5 24.1 0.00 0.30 0.30 45 1008.9
20260503205124 17 5 8.0 8.0 0.00 0.00 0.30 50 1009.1
20260503204957 17 212 4.8 17.7 0.00 0.30 0.30 49 1008.8
20260503204624 17 161 8.0 8.0 0.00 0.00 0.30 49 1009.1
20260503204454 16 244 8.0 17.7 0.00 0.30 0.30 49 1008.9
20260503204124 17 217 6.4 6.4 0.00 0.00 0.30 49 1009.1
20260503203957 16 257 4.8 25.7 0.00 0.30 0.30 48 1008.9
20260503203454 16 313 8.0 25.7 0.00 0.30 0.30 50 1008.8
20260503203124 17 259 4.8 4.8 0.00 0.00 0.30 49 1008.8
20260503202455 17 21 3.2 20.9 0.00 0.30 0.30 49 1008.9
20260503202124 17 271 6.4 6.4 0.00 0.00 0.30 54 1009.1
20260503201124 16 188 6.4 6.4 0.00 0.00 0.30 62 1009.1
20260503200958 16 179 4.8 16.1 0.00 0.30 0.30 62 1009.2
20260503200624 16 140 4.8 4.8 0.00 0.00 0.30 67 1009.5
20260503195958 15 346 3.2 11.3 0.00 0.30 0.30 73 1009.4
20260503195624 15 286 6.4 6.4 0.00 0.00 0.30 74 1009.8
20260503195456 14 281 0.0 12.9 0.00 0.30 0.30 73 1009.5
20260503194624 13 146 6.4 6.4 0.00 0.00 0.30 76 1009.8
20260503194456 13 48 6.4 19.3 0.00 0.30 0.30 76 1009.7
20260503193958 12 185 8.0 11.3 0.00 0.30 0.30 78 1009.9
20260503193624 12 119 4.8 4.8 0.00 0.00 0.30 80 1010.2
20260503192455 11 306 3.2 12.9 0.05 0.30 0.30 82 1010.2
20260503192125 11 144 3.2 3.2 0.00 0.00 0.30 81 1010.5
20260503191455 11 24 8.0 17.7 0.10 0.30 0.30 85 1010.4
20260503191124 11 61 3.2 3.2 0.00 0.00 0.30 86 1010.5
20260503190956 10 32 4.8 19.3 0.13 0.30 0.30 86 1010.5
20260503190455 10 277 3.2 19.3 0.18 0.30 0.30 87 1010.6
20260503190124 10 307 3.2 3.2 0.00 0.00 0.30 87 1010.8
20260503185957 10 19 3.2 12.9 0.18 0.30 0.30 86 1010.6
20260503185625 10 103 3.2 3.2 0.00 0.00 0.30 87 1010.8
20260503185454 9 313 3.2 12.9 0.18 0.30 0.30 86 1010.7
20260503184956 9 36 3.2 8.0 0.18 0.30 0.30 86 1010.9
20260503184455 9 139 4.8 8.0 0.20 0.30 0.30 86 1011.1
20260503183957 9 120 4.8 8.0 0.20 0.30 0.30 85 1011.3
20260503183625 10 327 3.2 3.2 0.15 0.00 0.28 85 1012.2
20260503182957 9 175 1.6 9.7 0.20 0.28 0.28 85 1012.4
20260503182625 10 192 1.6 1.6 0.28 0.00 0.28 84 1012.9
20260503182455 9 209 3.2 11.3 0.18 0.25 0.25 84 1012.7
20260503181957 10 186 3.2 14.5 0.18 0.23 0.23 83 1012.8
20260503181624 10 234 3.2 3.2 0.33 0.00 0.20 82 1013.2
20260503181455 10 233 3.2 11.3 0.15 0.20 0.20 82 1013.0
20260503181125 10 243 3.2 3.2 0.48 0.00 0.18 82 1013.2
20260503180454 10 198 1.6 12.9 0.10 0.13 0.13 83 1013.2
20260503180125 10 275 3.2 3.2 0.10 0.00 0.13 83 1013.5
20260503175957 10 242 3.2 12.9 0.13 0.13 0.13 83 1013.3
20260503175624 10 25 4.8 4.8 0.10 0.00 0.13 83 1013.5
20260503175454 10 215 1.6 9.7 0.13 0.13 0.13 83 1013.3
20260503175124 10 234 3.2 3.2 0.10 0.00 0.13 82 1013.5
20260503174956 10 179 6.4 11.3 0.13 0.13 0.13 82 1013.5
20260503174454 10 265 4.8 12.9 0.10 0.10 0.10 82 1013.5
20260503174124 10 176 4.8 4.8 0.15 0.00 0.10 82 1013.5
20260503173955 10 195 3.2 12.9 0.10 0.10 0.10 82 1013.6
20260503173624 10 206 4.8 4.8 0.15 0.00 0.10 82 1013.5
20260503173454 10 207 1.6 8.0 0.10 0.10 0.10 81 1013.6
20260503173124 10 203 3.2 3.2 0.18 0.00 0.08 81 1013.9
20260503172956 10 230 0.0 9.7 0.08 0.08 0.08 81 1013.8
20260503172624 10 265 4.8 4.8 0.20 0.00 0.08 80 1013.9
20260503172124 10 281 4.8 4.8 0.15 0.00 0.05 79 1014.2
20260503171956 10 276 1.6 14.5 0.05 0.05 0.05 78 1014.0
20260503171455 10 233 9.7 17.7 0.05 0.05 0.05 77 1014.1
20260503171124 11 355 6.4 6.4 0.00 0.00 0.03 77 1014.2
20260503170956 10 244 1.6 19.3 0.03 0.03 0.03 76 1014.0
20260503170624 11 216 6.4 6.4 0.00 0.00 0.03 75 1014.2
20260503170455 11 270 3.2 19.3 0.03 0.03 0.03 74 1013.9
20260503170124 11 284 8.0 8.0 0.00 0.00 0.00 73 1014.2
20260503150455 13 256 4.8 20.9 0.00 0.00 0.00 56 1013.9
20260503150125 13 83 4.8 4.8 0.00 0.00 0.00 58 1014.2
20260503140124 11 252 6.4 6.4 0.00 0.00 0.00 60 1014.9
20260503131125 10 186 6.4 6.4 0.00 0.00 0.00 61 1015.2
20260503130956 10 298 8.0 29.0 0.00 0.00 0.00 61 1014.9
20260503130454 10 218 8.0 20.9 0.00 0.00 0.00 61 1015.0
20260503130124 10 342 6.4 6.4 0.00 0.00 0.00 60 1015.2
20260503120124 8 206 3.2 3.2 0.00 0.00 0.00 62 1014.9
20260503110453 6 219 4.8 14.5 0.00 0.00 0.00 62 1014.8
20260503110124 7 216 4.8 4.8 0.00 0.00 0.00 63 1015.2
20260503090453 7 268 4.8 11.3 0.00 0.00 0.00 58 1015.0
20260503081453 7 264 4.8 12.9 0.00 0.00 0.00 60 1015.0
20260503080955 7 261 0.0 9.7 0.00 0.00 0.00 60 1015.0
20260503072451 6 279 0.0 4.8 0.00 0.00 0.00 63 1015.1
20260503071954 6 244 0.0 6.4 0.00 0.00 0.00 64 1015.1
20260503071452 6 269 1.6 6.4 0.00 0.00 0.00 64 1015.2
20260503070953 6 272 1.6 6.4 0.00 0.00 0.00 64 1015.2
20260503070452 6 276 3.2 6.4 0.00 0.00 0.00 64 1015.2
20260503054956 6 262 1.6 4.8 0.00 0.00 0.00 63 1015.9
20260503054455 6 263 3.2 4.8 0.00 0.00 0.00 62 1016.0
20260503053956 6 267 0.0 4.8 0.00 0.00 0.00 62 1016.0
20260503053455 7 234 1.6 4.8 0.00 0.00 0.00 62 1016.1
20260503052956 7 227 0.0 4.8 0.00 0.00 0.00 62 1016.1
20260503050956 7 252 1.6 3.2 0.00 0.00 0.00 62 1016.2
20260503050455 7 226 0.0 6.4 0.00 0.00 0.00 62 1016.3
20260503050010 7 223 1.6 4.8 0.00 0.00 0.00 62 1016.2
20260503045456 7 237 0.0 4.8 0.00 0.00 0.00 61 1016.3
20260503044456 7 292 0.0 4.8 0.00 0.00 0.00 62 1016.3
20260503043957 7 194 0.0 4.8 0.00 0.00 0.00 62 1016.3
20260503043456 7 236 3.2 3.2 0.00 0.00 0.00 62 1016.3
20260503042456 7 257 0.0 4.8 0.00 0.00 0.00 63 1016.3
20260503041456 7 197 0.0 6.4 0.00 0.00 0.00 63 1016.4
20260503040456 7 234 0.0 4.8 0.00 0.00 0.00 63 1016.4
20260503035958 7 239 0.0 3.2 0.00 0.00 0.00 63 1016.5
20260503035456 7 250 1.6 3.2 0.00 0.00 0.00 64 1016.5
20260503034957 7 252 0.0 3.2 0.00 0.00 0.00 63 1016.4
20260503034455 7 252 0.0 3.2 0.00 0.00 0.00 63 1016.5
20260503033957 7 254 1.6 1.6 0.00 0.00 0.00 63 1016.5
20260503033456 7 258 0.0 1.6 0.00 0.00 0.00 63 1016.4
20260503032957 7 258 0.0 0.0 0.00 0.00 0.00 63 1016.4
20260503032456 7 258 0.0 0.0 0.00 0.00 0.00 62 1016.4
20260503031957 7 258 0.0 0.0 0.00 0.00 0.00 62 1016.5
20260503031456 7 258 0.0 0.0 0.00 0.00 0.00 62 1016.5
20260503030957 7 258 0.0 0.0 0.00 0.00 0.00 62 1016.6
20260503030457 7 258 0.0 0.0 0.00 0.00 0.00 61 1016.6
20260503025959 7 258 0.0 0.0 0.00 0.00 0.00 61 1016.6
20260503024958 7 265 0.0 0.0 0.00 0.00 0.00 60 1016.7
20260503024456 7 265 0.0 0.0 0.00 0.00 0.00 60 1016.7
20260503023958 7 265 0.0 0.0 0.00 0.00 0.00 59 1016.6
20260503022958 8 265 0.0 0.0 0.00 0.00 0.00 59 1016.7
20260503022456 8 265 0.0 0.0 0.00 0.00 0.00 58 1016.6
20260503021957 8 265 0.0 0.0 0.00 0.00 0.00 57 1016.6
20260503021457 8 265 0.0 0.0 0.00 0.00 0.00 57 1016.6
20260503020957 8 265 0.0 0.0 0.00 0.00 0.00 57 1016.6
20260503020456 8 265 0.0 0.0 0.00 0.00 0.00 56 1016.6
20260503015455 8 265 0.0 0.0 0.00 0.00 0.00 55 1016.5
20260503014956 9 265 0.0 0.0 0.00 0.00 0.00 55 1016.5
20260503014455 9 265 0.0 0.0 0.00 0.00 0.00 54 1016.5
20260503013956 9 265 0.0 0.0 0.00 0.00 0.00 53 1016.4
20260503013455 10 265 0.0 0.0 0.00 0.00 0.00 53 1016.5
20260503012957 10 265 0.0 0.0 0.00 0.00 0.00 53 1016.4
20260503012455 10 265 0.0 0.0 0.00 0.00 0.00 52 1016.4
20260503011454 10 265 0.0 0.0 0.00 0.00 0.00 51 1016.3
20260503010956 11 265 0.0 0.0 0.00 0.00 0.00 50 1016.3
20260503005957 11 265 0.0 0.0 0.00 0.00 0.00 49 1016.3
20260503005456 11 265 0.0 0.0 0.00 0.00 0.00 47 1016.3
20260503004957 11 265 0.0 0.0 0.00 0.00 0.00 46 1016.3
20260503004457 12 265 0.0 0.0 0.00 0.00 0.00 46 1016.3
20260503003959 12 265 0.0 0.0 0.00 0.00 0.00 44 1016.4
20260503003457 12 265 0.0 3.2 0.00 0.00 0.00 44 1016.4
20260503002956 12 265 0.0 3.2 0.00 0.00 0.00 44 1016.3
20260503001457 12 265 0.0 4.8 0.00 0.00 0.00 43 1016.4
20260503000957 12 261 0.0 9.7 0.00 0.00 0.00 43 1016.4
20260503000457 12 261 1.6 9.7 0.00 0.00 0.00 41 1016.4
20260502235957 12 263 3.2 4.8 0.00 0.00 0.00 44 1016.5
20260502235455 12 232 0.0 3.2 0.00 0.00 0.00 43 1016.4
20260502233958 12 232 1.6 3.2 0.00 0.00 0.00 42 1016.5
20260502233457 12 251 1.6 4.8 0.00 0.00 0.00 41 1016.5
20260502232956 12 254 0.0 4.8 0.00 0.00 0.00 41 1016.5
20260502232455 12 249 3.2 6.4 0.00 0.00 0.00 41 1016.6
20260502231957 12 246 1.6 6.4 0.00 0.00 0.00 39 1016.6
20260502231455 13 273 3.2 9.7 0.00 0.00 0.00 40 1016.6
20260502230956 13 269 4.8 9.7 0.00 0.00 0.00 40 1016.6
20260502225956 13 257 0.0 4.8 0.00 0.00 0.00 38 1016.6
20260502225454 13 257 0.0 9.7 0.00 0.00 0.00 40 1016.6
20260502224956 13 255 6.4 9.7 0.00 0.00 0.00 39 1016.7
20260502224455 13 252 0.0 14.5 0.00 0.00 0.00 38 1016.6
20260502223955 13 257 0.0 14.5 0.00 0.00 0.00 38 1016.7
20260502223455 13 270 9.7 12.9 0.00 0.00 0.00 40 1016.7
20260502222956 14 257 3.2 12.9 0.00 0.00 0.00 37 1016.7
20260502222455 14 261 1.6 19.3 0.00 0.00 0.00 36 1016.7
20260502221956 15 271 1.6 11.3 0.00 0.00 0.00 37 1016.7
20260502220956 15 277 3.2 9.7 0.00 0.00 0.00 36 1016.7
20260502220456 15 257 1.6 6.4 0.00 0.00 0.00 40 1016.8
20260502215957 14 266 0.0 6.4 0.00 0.00 0.00 38 1016.7
20260502214956 14 249 0.0 8.0 0.00 0.00 0.00 37 1016.7
20260502214456 14 233 4.8 8.0 0.00 0.00 0.00 36 1016.8